www.pogodaiklimat.ru

Погода и климат >> Архив погоды >> Россия >> Ростовская область >> Маргаритово


ПОГОДА в Маргаритово

  • Прогноз погоды в Маргаритово
  • Монитор погоды в Маргаритово

АРХИВ ПОГОДЫ в Маргаритово

Время (UTC), дата Ветер
(напр.,м/с)
 
Видим.   Явления Облачность Т
(С)
Тd
(С)
f
(%)
Тe
(С)
Тes
(С)
Комфортность P
(гПа)
Po
(гПа)
Тmin
(С)
Tmax
(С)
R
(мм)
R24
(мм)
S
(см)
09 19.06 СЗ 4 20 км 1/1 1000 м
[Cu hum]
+29.9 +15.3 41 +32 +44 жарко 1012.3 1010.8
12 19.06 С 4 20 км ясно +32.1 +13.7 33 +33 +42 жарко 1010.9 1009.5
15 19.06 С 4 20 км 3/0
[Ci fib]
+30.7 +17.8 46 +35 +37 очень
душно
1010.3 1008.8 +32.7
18 19.06 СВ 4
{10}
20 км 3/0
[Ci fib]
+26.7 +16.4 53 +30 +30 душно 1011.0 1009.5
21 19.06 СВ 4 20 км 3/0
[Ci fib]
+25.6 +17.0 59 +29 +29 душно 1011.0 1009.5
00 20.06 СВ 4 20 км ясно +23.6 +16.5 64 +27 +27 жарко 1010.9 1009.4
03 20.06 СВ 3 20 км ясно +23.7 +17.0 66 +27 +28 жарко 1011.8 1010.3 +22.7
06 20.06 СВ 6
{10}
20 км ясно +26.8 +16.9 55 +31 +35 душно 1011.9 1010.4
09 20.06 С 6-10
{11}
20 км ясно +30.7 +15.5 40 +33 +41 душно 1011.2 1009.8
12 20.06 СВ 7-11
{12}
20 км 3/3 1000 м
[Cu med, cong]
+33.3 +10.7 25 +33 +35 жарко 1010.4 1008.9
15 20.06 СВ 5
{12}
20 км ясно +32.2 +12.3 30 +33 +34 жарко 1009.9 1008.4 +33.5
18 20.06 СВ 4 20 км 3/0 2000 м
[Ac trans]
+27.6 +18.4 57 +32 +32 очень
душно
1010.5 1009.0
21 20.06 СВ 5 20 км 6/0 2000 м
[Ac trans]
+26.1 +13.7 46 +28 +28 жарко 1011.1 1009.6
00 21.06 СВ 5 20 км 10/0 2000 м
[Ac und]
+24.8 +14.0 51 +27 +27 жарко 1011.7 1010.2
03 21.06 СВ 5-10
{10}
20 км 4/4 1000 м
[Cu hum]
+23.8 +14.8 57 +27 +27 жарко 1012.1 1010.6 +23.8
06 21.06 В 5
{10}
20 км 3/1 1000 м
[Cu hum Ac trans]
+29.3 +11.0 32 +30 +34 жарко 1012.9 1011.4
09 21.06 СВ 7-12
{12}
20 км 3/3 1000 м
[Cu hum]
+33.8 +12.1 27 +34 +38 очень
жарко
1012.5 1011.0
12 21.06 С 7-11
{14}
20 км 3/3 1000 м
[Cu med, cong]
+32.3 +14.5 34 +34 +37 душно 1012.0 1010.6
15 21.06 В 7-13
{13}
20 км 6/5 600 м
[Cb cap Ac trans]
+31.8 +11.5 29 +32 +32 жарко 1012.9 1011.4 +34.4
18 21.06 В 2
{13}
20 км 6/4 600 м
[Cb cap Ci ing]
+25.8 +12.0 42 +27 +27 жарко 1012.9 1011.4
21 21.06 С 3 20 км 3/0
[Ci fib]
+25.0 +20.5 76 +31 +31 очень
душно
1012.9 1011.4
00 22.06 СВ 2 20 км 3/0
[Ci fib]
+20.6 +10.6 53 +23 +23 комфорт 1013.5 1012.0
03 22.06 СВ 4 20 км 8/0 2000 м
[Ac As]
+24.1 +8.7 37 +25 +25 комфорт 1013.8 1012.3 +20.0
06 22.06 СВ 3 20 км 9/0 2000 м
[Ac trans]
+30.4 +9.1 27 +30 +34 жарко 1014.3 1012.8
09 22.06 СВ 5
{10}
20 км 9/3 1000 м
[Cu hum Cs]
+32.9 +13.3 30 +34 +39 очень
жарко
1013.8 1012.3
12 22.06 СВ 4
{11}
20 км 8/0
[Cs]
+32.9 +12.1 28 +33 +41 жарко 1013.3 1011.8
15 22.06 С 4 20 км 8/4 600 м
[Cb cap Ac cuf Ci ing]
+31.4 +12.2 31 +32 +33 жарко 1012.6 1011.1 +33.7
18 22.06 СВ 5 20 км 9/3 600 м
[Cb cap Ac trans]
+28.8 +15.1 43 +31 +31 жарко 1012.4 1010.9
21 22.06 СВ 5 10 км 10/0 2000 м
[Ac und]
+27.7 +11.1 36 +29 +29 жарко 1011.6 1010.1
00 23.06 В 4
{10}
20 км 9/0 2000 м
[Ac trans]
+27.3 +6.9 27 +27 +27 жарко 1011.3 1009.8
03 23.06 СВ 2 20 км 10/0 2000 м
[Ac und]
+25.4 +8.0 33 +26 +26 жарко 1012.6 1011.1 +25.4
06 23.06 В 3 20 км 9/0 2000 м
[Ac trans]
+29.2 +9.4 29 +29 +33 жарко 1013.9 1012.4 +25.2
09 23.06 С 4 20 км 10/0 2000 м
[Ac und]
+27.8 +16.1 49 +31 +35 душно 1013.4 1012.0
12 23.06 С 3 20 км 10/5 600 м
[Cb cap Ac und]
+30.9 +16.7 43 +34 +36 душно 1012.1 1010.6
15 23.06 ЮЗ 5 20 км 10/8 600 м
[Cb cap Ac und]
+28.4 +20.9 64 +36 +36 очень
душно
1010.9 1009.4 +32.9
18 23.06 З 7
{10}
20 км 10/10 600 м
[Cb cap]
+26.7 +18.0 59 +31 +31 душно 1011.8 1010.3
21 23.06 ЮЗ 4
{11}
20 км 10/10 600 м
[Cb cap]
+25.6 +17.3 60 +30 +30 душно 1012.2 1010.7
00 24.06 З 3 20 км 10/10 600 м
[Cb cap]
+24.2 +18.8 72 +29 +29 душно 1011.6 1010.1
03 24.06 Ю 2 20 км 10/5 600 м
[Cb cap Ac As]
+22.6 +16.9 70 +27 +27 душно 1012.7 1011.2 +22.4
06 24.06 В 2 20 км 9/3 600 м
[Cb cap Ac trans]
+27.5 +15.2 47 +30 +34 жарко 1013.5 1012.0
09 24.06 ЮВ 5 20 км 9/4 600 м
[Cb cap Ac As Ci fib]
+31.2 +15.3 38 +34 +37 душно 1013.3 1011.9
12 24.06 В 4 20 км 9/3 600 м
[Cb cap Ac trans Cs]
+30.8 +14.5 37 +33 +36 душно 1013.5 1012.0
15 24.06 СВ 4 20 км 9/3 600 м
[Cb cap Ac trans Cs]
+28.7 +17.8 52 +33 +34 очень
душно
1013.4 1011.9 +31.8
18 24.06 В 1 20 км 9/3 600 м
[Cb cap Ac trans Cs]
+24.5 +18.1 68 +29 +29 душно 1014.2 1012.7
21 24.06 В 1 20 км 6/0 2000 м
[Ac trans Cs]
+21.7 +16.1 70 +25 +25 комфорт 1014.9 1013.4
00 25.06 ЮЗ 2 20 км 6/0
[Cs]
+21.7 +19.6 88 +27 +27 душно 1014.8 1013.3
03 25.06 С 2 20 км 8/3 600 м
[Cb cap Ac As]
+24.6 +20.4 77 +30 +31 очень
душно
1014.6 1013.1 +20.5
06 25.06 С 4 20 км 8/0
[Cs]
+28.3 +16.1 48 +32 +38 душно 1015.3 1013.8
09 25.06 С 6
{12}
20 км 9/3 600 м
[Cb cap Ac trans Ci fib]
+28.7 +18.4 54 +34 +37 очень
душно
1016.2 1014.7
12 25.06 СВ 8-13
{13}
20 км 10/5 600 м
[Cb cap Ac As]
+28.5 +16.0 47 +32 +32 душно 1016.9 1015.4
15 25.06 С 8-11
{13}
20 км 6/0
[Ci fib]
+27.6 +14.9 46 +30 +31 жарко 1017.4 1015.9 +31.6
18 25.06 С 6
{11}
20 км 4/0 2000 м
[Ac cast Ci fib]
+25.3 +14.7 52 +28 +28 жарко 1018.5 1017.0
21 25.06 С 6
{10}
20 км 3/0 2000 м
[Ac trans]
+24.3 +14.9 56 +27 +27 жарко 1019.0 1017.5
00 26.06 СВ 7-12
{13}
20 км 3/0 2000 м
[Ac trans]
+23.2 +7.9 37 +24 +24 комфорт 1019.3 1017.8
03 26.06 СВ 6-11
{13}
20 км ясно +22.0 +8.3 41 +23 +24 комфорт 1019.9 1018.4 +21.6
06 26.06 С 7-10
{12}
20 км ясно +24.7 +8.8 36 +25 +28 комфорт 1020.2 1018.7

 

Местоположение метеостанции Маргаритово (Ростовская область, Россия): широта 46.93 долгота 38.87 высота над уровнем моря 13 м.

В архиве по умолчанию представлена погода в Маргаритово за последнюю неделю. Архивные данные за месяц целиком и за предыдущие месяцы, начиная с января 2011 года, Вы можете получить, выбрав интересующий диапазон дат из раскрывающегося списка и нажав кнопку "Ввод!".


*Определитесь, кто Вы:
робот инопланетянин человек

Внимание! Время в таблицах - всемирное. Для получения местного времени необходимо прибавить поправку, которая равна 3 ч.

Смотрите также архив погоды в соседних городах и на ближайших метеорологических станциях:

Погода в Таганроге (Ростовская область, Россия) (30 км)
Погода в Староминская (Краснодарский край, Россия) (46 км)
Погода в Ейске (Краснодарский край, Россия) (48 км)
Погода в Матвеевом Кургане (Ростовская область, Россия) (71 км)
Погода в Кущевской (Краснодарский край, Россия) (72 км)
Погода в Ростове-на-Дону (Ростовская область, Россия) (81 км)
Погода в Должанке (Краснодарский край, Россия) (91 км)
Погода в Каневской (Краснодарский край, Россия) (96 км)
Погода в Аэропорту Платов (Ростовская область, Россия) (101 км)
Погода в Мариуполе (Донецкая область, Украина) (105 км)

Пояснения к столбцам:

Ветер - указаны скорость ветра в м/с - средняя за 10 мин, порывы в срок и между сроками (в фигурных скобках) и направление, откуда дует ветер: С - северный, СВ - северо-восточный, В - восточный, ЮВ - юго-восточный, Ю - южный, ЮЗ - юго-западный, З - западный, СЗ - северо-западный.
Видимость - горизонтальная дальность видимости в метрах или километрах. При видимости от 1 до 10 км при отсутствии осадков обычно наблюдается дымка, при ухудшении видимости до 1 км и менее - туман. В сухую погоду видимость может ухудшаться дымом, пылью или мглою.
Явления - указаны атмосферные явления, наблюдавшиеся в срок или в последний час перед сроком; фигурными скобками обозначены явления, наблюдавшиеся между сроками (за 1-3 часа до срока); квадратными скобками обозначены град или гололедные отложения с указанием их диаметра в мм.
Облачность - указаны через наклонную черту общая и нижняя облачность в баллах и высота нижней границы облаков в метрах; квадратными скобками обозначены формы облаков: Ci - перистые, Cs - перисто-слоистые, Cc - перисто-кучевые, Ac - высококучевые, As - высокослоистые, Sc - слоисто-кучевые, Ns - слоисто-дождевые, Cu - кучевые, Cb - кучево-дождевые. Подробнее классификацию облаков см. в Атласе облаков (PDF).
T - Температура воздуха - температура, измеренная на высоте 2 м над землей.
Td - Температура точки росы - температура, при понижении до которой содержащийся в воздухе водяной пар достигнет насыщения.
f - Относительная влажность воздуха - влажноcть воздуха, измеренная на высоте 2 м над землей.
Te - Эффективная температура - температура, которую ощущает одетый по сезону человек в тени. Характеристика душности погоды. При расчете учитывается влияние влажности воздуха и скорости ветра на теплоощущения человека.
Tes - Эффективная температура на солнце - температура, которую ощущает человек, с поправкой на солнечный нагрев. Характеристика знойности погоды. Зависит от высоты солнца над горизонтом, облачности и скорости ветра. Ночью, в пасмурную погоду, а также при ветре 12 м/с и более поправка равна нулю.
P - Атмосферное давление - приведенное к уровню моря атмосферное давление.
Po - Атмосферное давление - измеренное на уровне метеостанции атмосферное давление.
Tmin - Минимальная температура - минимум температуры воздуха на высоте 2 м над землей.
Tmax - Максимальная температура - максимум температуры воздуха на высоте 2 м над землей.
R - Количество осадков - Количество выпавших осадков за период времени, мм. При наведении курсора мыши на число - период времени, за который выпало указанное количество осадков.
R24 - Количество осадков - Количество выпавших осадков за 24 часа, мм.
S - Снежный покров - Высота снежного покрова, см. При наведении курсора мыши на число - состояние снежного покрова и степень покрытия местности в баллах.